Regional Weather Roundup
Issued by NWS

Home | Current Version | Previous Version | Graphics & Text | Print | Product List | Glossary On
Versions: 1 2 3 4 5 6 7 8 9 10 11 12 13 14 15 16 17 18 19 20 21 22 23 24 25 26 27 28 29 30 31 32 33 34 35 36 37 38 39 40 41 42 43 44 45 46 47 48 49 50
000
ASUS43 KLSX 151307
RWRMO

WEATHER SUMMARY FOR MISSOURI
NATIONAL WEATHER SERVICE SPRINGFIELD MO
800 AM CDT TUE AUG 15 2017

NOTE: "FAIR" INDICATES FEW OR NO CLOUDS BELOW 12,000 FEET WITH NO
       SIGNIFICANT WEATHER AND/OR OBSTRUCTIONS TO VISIBILITY.
       CURRENT SKY AND/OR WEATHER CONDITIONS ARE NOT AVAILABLE FOR
       CHILLICOTHE AND FARMINGTON.

MOZ001>031-035>038-043-044-053-054-151400-
...NORTHERN AND WESTERN MISSOURI...

CITY           SKY/WX    TMP DP  RH WIND       PRES   REMARKS
KANSAS CTY INT PTSUNNY   73  71  93 S3        29.89R
KANSAS C DTWN  CLOUDY    74  72  93 SW5       29.88R
LEE`S SUMMIT   MOSUNNY   72  72 100 S3        29.90R
ST JOSEPH      SUNNY     72  71  97 S5        29.87S
CHILLICOTHE      N/A     72  71  97 CALM      29.90R
KIRKSVILLE     SUNNY     71  69  93 CALM      29.90S

$$
MOZ066>068-077>081-088>096-101>105-151400-
...SOUTHWEST MISSOURI...

CITY           SKY/WX    TMP DP  RH WIND       PRES   REMARKS
SPRINGFIELD    SUNNY     71  70  96 S8        29.90R
JOPLIN         CLOUDY    72  70  93 CALM      29.89R
BRANSON        CLOUDY    68  68 100 CALM      29.94R FOG

$$
MOZ032>034-039>042-045>050-055>058-069>072-151400-
...CENTRAL MISSOURI...

CITY           SKY/WX    TMP DP  RH WIND       PRES   REMARKS
COLUMBIA       FOG       68  68 100 CALM      29.90R VSB 1/2
JEFFERSON CITY FOG       68  68 100 SE3       29.90R VSB 1/2
ROLLA          SUNNY     72  71  97 S5        29.93R
SEDALIA        SUNNY     71  71 100 S3        29.91R
WHITEMAN AFB   MOSUNNY   69  69 100 S3        29.89R
WARRENSBURG    SUNNY     68  66  94 CALM      29.89R
OSAGE BEACH    SUNNY     69  68  96 CALM      29.92R

$$
MOZ051-052-059>065-151400-
...EAST CENTRAL MISSOURI...

CITY           SKY/WX    TMP DP  RH WIND       PRES   REMARKS
ST LOUIS INTL  MOSUNNY   75  71  87 CALM      29.91R
SPIRIT OF STL  SUNNY     68  68 100 CALM      29.90R
ST CHARLES     MOSUNNY   71  71 100 CALM      29.90R FOG

$$
MOZ072>076-082>087-097>100-106>115-151400-
...SOUTH CENTRAL AND SOUTHEAST MISSOURI...

CITY           SKY/WX    TMP DP  RH WIND       PRES   REMARKS
CAPE GIRARDEAU FOG       73  72  96 CALM      29.91S VSB 1/4
FARMINGTON     FOG       70  69  97 CALM      29.94R VSB 1/4
POPLAR BLUFF   FOG       73  73 100 E3        29.91R VSB 1/4
WEST PLAINS    FOG       69  69 100 CALM      29.95R VSB 3/4

$$



USA.gov is the U.S. government's official web portal to all federal, state and local government web resources and services.